Theta_e
321 322 322 320 320 322 324 326 327 328 329 330 329 328 329 326 327 332 334 336 341 342 344 346 345 351 356 356 357 355 354 356 355 356 355 354 354 352 353 352 352 353 351 350 350 352 353 353 354 354 353 353 353 352 352 352 352 352 352 352 353 352 352 352 352 353 353 352 352 350 347 344 345 350 352 351 350 352 353 353 353 353 353 354 353 352
322 321 321 321 322 325 327 328 328 327 328 328 327 327 327 327 327 333 333 333 338 340 340 345 345 350 354 355 356 356 356 357 356 356 356 355 354 353 353 353 353 352 351 350 350 351 352 352 354 353 354 354 353 353 352 352 352 351 352 352 353 352 352 352 352 352 353 353 352 352 350 347 348 351 352 351 351 352 353 353 353 354 353 353 353 353
323 322 321 322 326 328 330 330 328 327 328 327 326 324 323 326 327 331 333 331 335 337 339 345 343 346 353 353 354 355 356 356 355 355 354 354 354 354 354 353 353 352 352 352 351 350 352 351 353 353 353 354 353 354 353 352 352 351 352 352 352 352 352 352 352 352 353 353 353 352 352 349 350 353 353 352 352 352 352 353 354 353 353 353 353 354
323 324 324 325 328 329 330 329 328 327 327 326 325 321 319 324 324 324 330 331 334 336 338 343 342 343 351 352 353 354 354 355 353 354 353 353 354 354 353 352 353 353 352 353 351 350 351 351 352 352 353 354 354 354 353 353 353 352 352 352 352 352 352 352 351 352 353 353 353 353 352 350 351 353 353 354 353 353 353 353 353 353 353 353 353 354
324 325 326 328 328 329 328 328 328 326 325 325 325 322 320 324 324 324 328 330 331 331 333 334 331 337 348 350 352 351 352 354 353 353 354 353 353 351 351 351 352 352 351 353 353 351 351 351 352 352 353 353 353 354 354 354 353 352 353 352 352 352 352 352 352 352 353 353 354 354 354 352 352 353 354 355 354 354 354 353 353 353 354 353 353 352
325 326 326 327 327 328 328 328 328 325 323 323 325 325 323 325 326 325 328 327 323 324 331 328 323 332 348 349 351 350 351 353 351 354 355 353 354 351 351 352 351 352 351 351 352 351 351 351 351 352 352 353 353 354 354 354 354 354 353 353 353 353 353 353 352 352 352 353 354 354 354 353 352 353 354 354 355 355 354 353 353 354 353 353 353 353
323 325 326 326 327 328 328 327 328 326 323 320 324 326 326 326 326 324 324 323 319 321 331 331 324 329 340 344 350 352 350 353 351 352 354 353 353 352 351 351 351 351 350 351 351 351 351 351 351 351 352 353 352 353 354 354 354 354 354 353 354 354 353 353 353 352 352 352 353 353 354 353 353 353 353 354 355 355 354 354 354 354 354 353 353 353
324 325 326 326 326 327 327 326 328 328 322 320 325 326 326 326 325 325 323 321 323 324 327 330 326 325 331 341 350 351 350 352 352 352 353 352 352 352 351 351 351 351 349 350 350 350 350 351 350 350 351 352 352 353 354 354 354 354 354 354 354 354 355 354 353 354 353 353 353 354 354 354 353 352 353 353 354 354 354 354 354 354 353 353 353 353
324 324 325 327 326 326 325 327 329 328 324 324 328 327 326 327 325 325 323 321 323 322 318 322 323 321 329 343 349 351 351 350 352 352 350 351 350 350 351 350 350 350 350 350 349 350 350 350 350 350 351 351 351 353 352 354 354 354 354 354 354 355 355 355 355 354 353 352 353 353 353 353 353 353 353 353 353 354 354 354 354 354 352 352 352 352
327 326 326 325 325 325 325 328 329 327 327 328 329 329 327 326 326 326 325 322 320 319 316 318 319 318 325 338 344 347 347 348 352 351 349 350 349 350 350 350 350 350 350 350 349 349 349 349 349 350 351 351 351 352 352 354 354 354 354 354 354 354 355 356 355 354 354 353 353 354 353 354 354 353 354 353 353 353 354 354 354 354 353 352 353 352
328 328 328 327 326 327 327 328 329 328 329 330 330 328 326 328 329 327 327 323 318 318 317 317 319 318 320 329 339 345 346 349 351 350 349 349 348 349 349 349 351 350 349 349 348 349 348 348 349 350 350 349 350 352 352 353 353 354 354 353 354 354 355 356 355 355 354 353 354 354 354 354 353 354 353 353 354 353 353 353 354 353 352 352 352 352
327 329 329 328 327 327 328 327 328 329 328 329 330 327 325 325 324 322 323 322 318 318 318 318 320 318 316 322 335 346 350 349 349 350 350 349 348 348 348 349 350 349 349 349 348 349 348 348 349 349 349 349 349 350 352 352 353 353 353 353 353 353 354 355 355 355 355 354 354 354 353 354 353 353 353 353 353 353 353 353 353 353 353 352 353 353
322 326 328 328 329 329 328 326 327 327 328 328 328 325 322 322 321 320 320 319 320 323 325 322 318 316 317 322 331 345 350 349 348 349 349 348 349 348 347 348 349 349 350 350 349 349 348 348 348 348 349 349 349 350 351 352 352 352 352 353 352 353 354 354 355 355 355 355 354 353 354 353 353 353 353 353 352 353 353 352 353 353 352 353 354 354
318 322 325 326 329 329 328 326 323 324 327 326 324 322 321 321 323 323 322 320 319 322 323 320 319 317 318 323 328 337 345 349 347 348 347 347 348 348 348 348 349 350 349 350 350 349 349 349 348 347 348 349 349 350 351 352 352 353 353 352 353 353 354 354 355 355 355 355 354 354 353 353 354 353 353 353 353 352 352 352 352 352 352 353 353 353
315 317 321 323 326 329 329 328 325 325 326 327 327 324 321 320 322 323 322 320 320 321 319 316 319 317 316 328 336 330 337 347 346 346 347 347 347 347 347 348 349 350 350 350 351 349 350 349 347 347 348 348 349 349 350 351 352 352 353 353 353 352 354 354 354 355 355 354 354 354 354 354 354 353 353 353 352 352 351 351 351 351 351 351 352 352
316 315 319 323 324 328 330 327 327 327 324 326 329 324 320 322 322 321 324 324 320 319 317 315 322 326 325 337 342 329 331 341 344 347 347 346 348 347 347 349 349 350 351 350 351 350 350 350 347 347 347 348 348 348 350 351 352 352 352 352 353 353 353 353 354 355 354 355 354 354 354 353 353 353 353 352 352 352 351 351 351 350 350 350 351 352
321 320 319 322 324 324 328 328 327 326 323 325 325 321 323 326 322 318 320 323 317 315 318 317 318 323 323 327 333 328 328 335 340 345 346 345 347 347 349 350 349 350 350 351 352 352 352 350 348 348 347 348 348 348 350 350 351 352 352 352 353 352 353 353 354 354 355 355 354 354 354 354 353 353 353 352 352 352 352 352 351 351 350 350 351 351
321 322 321 320 323 321 323 328 327 326 326 324 320 321 324 325 324 321 317 318 317 316 321 320 315 315 316 324 337 332 327 332 338 341 344 345 346 347 349 349 349 350 350 350 352 352 352 351 349 347 347 347 348 348 349 350 351 352 352 352 353 353 353 353 354 354 354 355 354 354 354 353 353 353 352 352 352 352 352 352 351 351 351 350 350 350
317 322 325 322 322 323 321 323 323 325 326 324 323 325 325 320 318 319 317 317 318 317 319 320 320 317 316 323 333 328 325 332 338 342 344 345 346 347 348 349 349 349 350 351 352 353 352 351 350 348 347 348 348 349 349 350 350 351 351 352 352 353 353 353 353 354 354 354 354 354 354 354 353 353 352 352 351 351 352 352 351 351 351 351 351 351
316 324 329 325 321 322 322 320 317 318 323 325 324 325 327 323 317 318 319 317 318 321 320 318 318 318 321 328 330 328 329 331 336 344 346 344 345 346 346 348 349 349 350 350 351 352 352 351 350 348 348 348 349 348 349 350 350 351 351 352 352 352 353 353 353 354 354 354 354 354 354 354 353 353 353 352 352 351 351 351 352 352 352 351 351 351
317 323 327 325 321 321 323 321 317 318 321 321 319 319 320 321 320 319 319 318 321 325 325 320 315 318 331 339 331 330 334 328 333 346 348 345 346 345 346 348 348 349 350 350 350 351 351 351 350 349 348 348 348 349 350 350 350 351 351 352 352 352 352 352 353 353 354 354 354 354 353 354 353 353 352 352 351 351 350 351 352 352 353 352 352 352
317 321 323 323 322 324 325 323 322 323 323 320 319 319 319 318 318 317 317 320 320 322 326 322 313 318 334 337 328 331 336 329 331 342 346 346 346 345 346 348 349 349 349 350 350 350 350 351 350 349 349 349 349 349 350 351 351 350 351 351 352 352 352 353 353 353 353 353 353 354 353 353 353 353 353 352 351 351 351 351 351 352 353 353 353 353
316 320 321 320 321 321 321 322 322 322 324 325 322 321 323 321 317 314 315 318 316 317 325 322 313 319 337 341 331 328 330 327 327 337 344 345 345 346 346 347 348 349 349 350 350 350 350 350 350 349 349 349 349 350 350 351 352 351 351 351 352 352 352 352 353 353 354 353 353 353 353 352 353 352 352 352 351 351 351 351 351 351 353 353 354 354
317 319 318 318 320 321 320 322 322 323 325 324 323 322 322 322 319 318 323 323 317 314 317 317 313 319 341 356 343 331 330 327 325 332 340 344 344 346 347 346 349 350 349 350 349 350 351 350 350 351 350 350 350 351 351 352 353 352 352 352 352 353 352 352 353 353 354 353 353 353 353 353 352 352 352 352 352 352 351 351 352 352 352 353 354 354
317 318 317 320 328 326 320 321 326 330 326 321 323 325 321 323 323 324 326 324 317 315 315 315 313 317 339 362 348 337 337 333 328 327 332 340 344 346 347 347 349 350 350 351 351 351 351 351 352 352 351 349 349 351 352 352 353 353 354 353 353 354 353 353 353 353 354 354 353 353 353 352 353 352 352 353 352 352 352 352 352 352 352 353 353 354
317 318 316 320 328 328 323 324 327 328 322 318 322 323 322 324 320 321 322 317 317 320 317 314 314 317 331 345 336 332 338 338 333 327 326 334 343 347 348 348 350 350 351 351 351 352 353 352 354 354 352 349 349 351 352 352 353 354 354 354 354 354 355 353 354 354 353 354 354 354 353 353 353 353 353 352 352 353 353 352 353 353 353 352 353 353
317 319 317 319 321 321 321 322 320 318 317 316 319 319 320 322 321 322 322 315 320 325 317 315 319 318 322 328 326 328 334 338 336 328 326 334 342 348 349 349 351 351 350 351 351 352 354 354 354 354 352 350 349 350 352 352 354 354 355 356 356 355 356 355 355 355 354 354 354 355 355 353 353 353 353 353 353 352 353 353 353 353 353 353 353 354
317 318 316 317 318 316 316 317 315 315 316 315 316 317 319 323 324 320 317 318 327 322 315 324 331 319 317 327 327 326 334 343 341 330 328 335 342 347 350 350 352 351 350 352 352 353 355 354 354 355 353 350 350 350 351 353 354 354 355 356 356 356 357 357 357 356 356 356 355 355 355 354 354 354 353 354 353 353 353 353 353 353 353 353 353 353
315 316 314 314 316 315 314 314 314 314 315 315 316 317 320 324 325 320 317 325 330 318 315 333 342 325 320 327 325 325 335 342 339 330 328 336 345 348 349 350 351 350 350 352 352 354 354 354 355 355 353 351 350 350 351 352 353 354 355 357 357 357 357 358 358 357 357 356 356 356 356 355 355 354 354 354 354 353 353 353 353 353 353 353 353 353
313 316 316 313 314 314 313 313 314 314 316 319 321 322 323 326 328 324 322 327 330 324 323 338 342 332 325 327 327 331 340 345 347 338 333 338 345 347 349 350 349 349 350 351 351 352 352 353 354 354 353 353 350 349 351 351 352 354 355 356 357 358 358 359 359 358 358 358 357 357 356 356 356 355 355 354 354 354 354 353 353 353 353 353 353 353
312 315 315 313 314 314 314 314 314 314 318 323 327 329 331 333 329 322 323 329 328 326 329 336 335 333 335 341 343 345 346 349 351 346 339 340 345 346 348 348 348 350 349 349 351 351 351 353 353 354 354 354 350 350 351 351 351 353 354 356 357 358 359 360 360 359 359 358 358 357 357 357 356 356 356 355 355 355 354 354 354 353 354 354 353 354
312 314 313 314 315 315 314 314 314 314 319 327 330 331 334 337 331 326 335 342 336 330 332 330 326 332 346 350 345 348 355 359 363 359 347 342 344 346 347 348 348 350 348 349 350 350 351 352 353 354 354 352 349 350 350 351 353 353 353 355 356 358 359 360 361 360 359 360 359 358 359 358 357 357 356 356 356 355 354 354 354 354 353 354 354 354
311 313 313 314 316 317 314 312 315 320 328 335 334 330 332 338 342 346 349 348 345 344 341 333 330 341 351 346 345 362 372 373 376 374 362 350 348 348 347 347 349 348 348 349 350 350 350 351 352 352 352 350 349 349 350 351 352 352 354 354 356 357 358 360 361 361 361 361 360 360 359 359 358 358 357 356 356 356 356 355 355 354 354 354 354 354
312 312 313 313 316 317 313 313 324 334 338 338 333 328 329 334 343 350 349 345 344 346 346 345 344 347 349 349 359 373 372 366 366 365 362 360 357 351 347 348 347 347 347 348 349 349 349 350 351 350 349 350 350 349 350 351 353 354 353 354 355 357 358 360 361 361 361 361 361 361 360 360 359 359 358 357 357 356 356 356 356 355 355 354 354 354
312 312 313 313 315 317 316 321 337 346 339 336 331 326 327 329 333 341 347 344 342 343 345 350 351 354 362 365 363 364 363 362 361 361 362 365 367 367 368 370 363 357 353 350 349 350 350 351 352 350 347 349 350 350 350 352 353 355 354 355 356 357 358 360 360 361 362 362 361 361 361 361 360 360 359 359 358 357 357 356 356 355 355 355 354 355
311 312 313 313 315 318 319 323 335 340 337 335 331 326 327 328 328 335 346 347 342 340 343 348 352 357 366 367 362 361 361 360 361 361 360 363 367 371 375 378 378 375 373 370 369 368 362 355 352 350 348 350 350 351 352 352 355 356 356 356 357 358 358 359 361 361 362 362 362 362 362 362 361 361 360 359 359 358 358 358 357 356 356 356 355 355
311 311 312 313 316 319 317 316 324 334 338 337 332 325 324 327 327 331 342 347 342 339 340 344 348 352 358 362 364 364 361 362 366 362 357 359 363 364 366 367 367 370 373 373 373 372 363 354 353 353 352 352 353 353 353 355 357 358 358 358 358 359 359 360 361 362 362 362 363 363 362 362 361 361 360 360 360 359 359 358 358 357 357 356 355 355
310 311 312 314 316 318 316 315 324 338 342 335 329 323 322 326 325 326 336 347 343 336 337 342 346 349 353 358 362 363 363 367 369 363 356 356 358 359 361 362 361 363 364 364 364 363 360 360 361 360 359 360 359 357 355 357 358 360 360 360 360 359 360 360 361 362 362 363 363 363 363 363 363 362 361 360 360 359 359 359 358 358 358 357 356 356
310 311 313 314 316 315 314 316 324 336 338 330 326 324 324 326 325 327 340 350 343 334 335 339 344 347 350 355 361 364 365 370 370 361 355 355 355 356 358 359 360 360 360 360 362 361 361 363 362 362 363 364 364 363 361 359 360 362 361 361 361 361 361 360 361 361 363 364 363 364 364 364 363 363 362 362 361 360 360 359 359 359 358 358 357 357
313 314 315 316 316 315 316 317 324 333 333 326 325 326 325 326 328 335 349 351 340 333 333 336 341 345 347 352 356 359 362 367 365 356 352 353 354 353 354 356 357 358 358 357 358 358 359 361 361 361 362 361 363 365 362 362 363 362 363 363 362 362 362 361 362 362 362 363 364 365 365 365 365 364 363 363 361 361 361 360 360 359 358 358 358 357
316 317 318 316 315 316 317 316 322 331 330 325 326 327 326 330 337 344 349 344 337 333 331 332 338 341 343 347 351 353 355 355 353 350 349 350 351 352 352 352 353 355 357 357 357 357 357 357 357 357 357 359 363 365 363 363 364 363 363 363 362 362 362 363 363 363 362 362 363 364 365 365 365 364 364 363 363 362 362 360 361 360 358 358 358 357
317 318 319 318 316 316 316 315 322 331 328 324 328 329 329 334 342 343 339 336 334 332 328 329 333 336 340 344 346 348 348 346 346 348 347 347 349 350 351 351 352 353 355 356 356 355 354 354 354 354 354 357 361 364 364 364 364 364 364 362 362 364 364 363 363 364 363 363 364 364 365 366 366 365 365 365 364 364 362 362 361 360 359 358 358 358
318 319 320 321 322 321 321 322 327 331 328 326 330 332 331 333 336 335 333 332 331 328 326 327 330 333 338 342 342 342 343 343 344 346 345 346 347 348 348 350 352 353 353 354 355 354 353 352 351 351 352 354 357 360 363 363 362 362 362 361 362 364 366 365 365 364 364 364 364 364 364 365 365 365 366 365 365 364 363 363 362 361 360 359 358 358
319 319 319 321 323 324 327 326 324 325 326 328 331 333 331 330 331 331 332 331 328 326 325 327 328 329 334 339 340 340 340 341 342 343 343 344 344 345 347 348 349 351 352 352 354 353 351 350 350 349 351 353 354 356 358 360 360 359 358 360 362 364 366 367 366 365 365 364 363 364 365 364 365 366 366 366 366 365 364 363 362 362 361 360 359 359
318 318 317 318 319 321 326 325 321 322 327 327 328 329 329 329 329 328 328 328 328 326 325 326 326 326 329 334 338 339 339 340 340 340 341 341 341 343 345 346 346 348 349 350 351 352 350 350 349 348 350 352 353 353 355 356 357 356 356 359 363 365 366 367 368 368 367 364 363 363 364 364 365 366 365 366 366 366 366 364 363 363 362 362 360 360
316 316 317 317 316 318 322 322 319 321 324 325 325 326 326 326 327 327 326 325 324 324 324 325 325 324 324 329 334 337 338 338 339 340 339 339 339 340 342 344 344 344 346 348 350 351 350 349 349 349 349 350 352 352 353 354 355 354 355 357 362 365 365 367 368 369 368 366 363 362 363 364 365 366 365 366 367 366 366 365 365 364 364 362 362 361
313 315 317 316 314 316 320 322 319 319 321 322 323 323 321 322 323 325 326 325 323 323 323 324 325 324 322 324 329 335 337 337 338 339 338 338 338 339 340 342 343 342 343 345 348 349 350 349 348 348 348 349 351 352 352 352 353 353 354 356 359 364 366 367 368 369 369 366 363 362 363 365 365 366 366 366 366 367 366 366 365 365 364 364 363 363
311 314 315 315 314 315 317 318 316 316 319 321 322 321 320 320 320 321 323 324 324 323 324 324 324 324 322 321 324 330 335 337 337 339 339 338 337 338 339 340 341 340 340 342 345 348 349 348 348 348 348 348 349 350 350 351 351 351 352 354 356 360 365 368 368 369 370 367 365 363 364 365 365 366 367 368 368 367 367 367 366 366 365 365 365 364
311 312 313 313 313 314 314 315 315 316 318 320 319 319 319 319 318 318 319 321 322 324 325 323 321 321 321 322 322 325 330 335 338 338 339 338 337 337 338 338 338 337 339 341 343 345 348 349 349 349 348 348 349 349 350 350 349 350 350 351 352 357 363 367 367 369 369 368 367 364 365 366 367 368 368 367 366 365 365 366 367 367 367 366 366 366
311 311 311 312 313 314 314 314 313 314 315 315 314 316 317 317 317 316 317 318 320 323 324 322 321 320 320 321 322 323 325 331 337 338 338 339 338 337 337 337 336 335 337 339 341 343 346 349 350 349 349 349 349 349 350 349 349 350 349 349 351 355 361 365 366 368 369 369 368 366 366 367 368 368 366 364 363 362 360 360 363 366 367 368 368 368
311 310 309 311 312 312 312 311 310 311 311 311 311 313 314 315 316 315 315 316 319 322 324 322 322 323 322 321 322 323 323 327 334 337 338 338 336 334 335 336 335 336 337 339 340 341 343 347 350 350 349 349 349 348 349 349 349 349 350 352 352 354 358 362 364 365 367 369 369 367 367 368 367 365 363 362 362 361 358 355 357 360 364 366 367 367
Wind_Speed
7 6 8 12 14 15 14 11 10 6 5 4 5 5 6 6 6 6 7 7 5 8 10 12 10 9 11 15 17 17 17 16 16 16 16 16 15 15 16 16 17 17 16 19 26 32 34 34 34 34 34 35 35 35 36 36 36 37 37 36 35 35 35 35 35 34 33 33 32 31 32 33 33 31 29 29 28 26 25 23 22 23 23 23 23 22
7 7 13 17 14 11 10 8 8 9 9 6 4 4 5 6 7 7 6 5 3 5 8 10 8 10 14 16 17 17 17 17 17 19 19 19 18 15 17 18 18 15 13 16 20 26 32 33 34 35 34 35 35 35 37 38 38 38 37 38 37 36 36 38 38 37 36 36 36 34 34 35 33 31 31 31 30 28 27 24 22 23 24 24 24 22
7 11 18 15 8 6 7 7 8 10 10 7 5 4 5 4 3 7 8 5 4 4 5 7 7 9 15 16 16 18 19 18 19 22 22 20 19 16 17 18 17 16 13 15 18 21 29 32 34 34 33 35 36 36 38 39 39 38 37 38 37 37 38 39 39 38 37 37 36 35 34 34 32 30 31 31 29 28 27 25 22 23 24 24 24 22
7 11 14 9 7 8 8 7 9 8 7 7 5 5 6 3 2 5 7 4 3 5 3 4 5 7 11 12 14 19 20 18 18 21 20 19 21 21 21 20 19 20 18 18 19 19 24 29 32 33 33 35 36 36 37 38 39 39 38 38 38 38 39 39 40 39 38 35 34 32 31 31 30 28 29 28 27 27 27 26 24 23 25 25 24 21
8 6 6 10 9 12 10 8 9 7 6 8 8 8 7 6 7 7 3 4 3 3 2 2 1 3 8 10 11 15 16 15 16 18 16 16 19 18 18 17 18 20 19 19 20 19 20 24 30 33 34 34 35 36 37 39 40 39 40 40 40 40 39 39 40 39 37 32 31 30 27 25 25 24 25 25 25 27 27 27 26 25 26 27 24 21
11 6 8 13 12 12 12 10 10 9 6 7 10 12 11 9 10 7 1 4 4 5 3 3 1 5 6 13 14 13 13 14 14 16 18 18 16 14 13 16 17 17 17 17 19 20 20 23 28 32 33 34 35 37 38 40 41 40 40 41 41 40 39 40 40 39 37 34 32 31 27 25 24 22 24 27 28 29 30 29 28 26 26 28 26 22
8 7 8 12 13 12 12 10 10 11 6 8 11 13 12 10 10 7 3 1 3 5 5 2 3 5 4 11 16 14 15 18 15 16 20 17 14 14 15 16 17 16 16 16 18 19 19 21 24 28 33 36 36 38 39 40 41 41 40 41 41 40 39 39 39 39 38 35 34 33 32 31 30 28 29 33 33 32 32 30 28 26 27 28 27 25
8 10 9 10 13 12 11 11 11 12 9 9 8 9 9 9 13 10 4 4 4 4 6 2 3 3 3 8 15 16 18 19 17 17 19 16 16 18 17 17 18 18 18 17 17 19 19 21 24 28 34 37 37 38 38 39 40 42 41 42 41 40 39 39 39 39 39 37 36 36 35 33 34 34 34 35 34 32 31 29 27 26 26 28 28 26
9 13 13 12 11 10 11 13 12 13 10 6 5 7 7 8 12 9 4 4 3 2 8 7 3 2 4 6 11 14 17 19 20 19 19 18 19 19 18 19 19 19 18 17 18 20 20 22 28 32 35 37 38 37 38 39 40 41 42 42 42 41 39 39 39 40 41 40 37 36 35 33 33 33 31 30 30 30 30 30 28 26 25 27 28 27
7 11 13 12 10 9 10 10 10 12 10 3 6 6 5 7 8 5 5 4 2 2 10 11 4 3 5 5 8 11 14 17 18 18 18 20 21 19 19 20 19 17 16 17 18 19 20 26 31 33 34 35 36 37 39 40 39 40 41 41 42 41 40 40 41 41 42 41 38 36 35 34 32 30 27 26 27 29 29 29 29 27 26 27 27 27
4 5 11 11 10 7 6 7 10 13 10 4 5 4 2 4 3 1 3 4 3 6 11 15 8 6 5 5 7 10 14 17 17 15 16 17 19 18 18 18 18 17 16 17 17 17 20 27 32 32 32 33 35 36 38 38 39 40 40 40 41 42 41 40 41 42 43 42 39 38 37 36 33 30 27 27 28 30 30 30 30 29 27 27 27 28
6 5 6 6 9 9 6 6 8 11 11 6 4 4 2 3 1 1 1 3 7 8 9 13 9 8 8 6 6 12 18 21 19 17 18 19 20 19 18 18 18 18 17 17 16 15 17 20 25 28 30 32 35 36 36 38 39 39 40 40 41 41 41 41 41 43 43 42 41 40 39 37 34 32 30 30 31 31 32 31 31 30 28 27 27 28
6 8 5 3 8 11 9 7 7 7 10 8 5 6 5 3 2 4 4 4 7 7 7 8 6 7 9 8 10 15 19 21 20 19 21 23 23 21 20 19 17 16 16 16 15 15 16 17 18 23 27 30 33 35 36 37 38 38 39 40 40 41 41 41 41 42 42 42 42 41 40 38 36 33 33 33 32 32 33 32 31 30 29 28 28 29
4 6 8 8 6 10 12 8 6 6 8 10 8 7 7 5 5 7 5 3 4 5 7 7 6 4 5 7 12 17 20 22 21 21 21 23 25 24 21 20 17 17 17 16 15 16 16 17 17 21 27 30 31 34 36 37 37 37 38 40 41 41 42 42 42 42 42 43 43 42 41 39 37 35 35 35 34 33 33 33 32 33 32 31 31 31
8 8 10 12 6 8 13 11 9 8 7 10 10 8 8 7 6 6 4 4 4 4 6 5 5 5 5 5 9 15 19 21 21 21 19 18 20 20 18 17 17 17 17 15 16 17 18 17 19 23 28 30 32 34 36 37 38 37 38 40 41 41 42 43 42 43 43 43 43 42 41 39 38 37 36 35 35 34 33 33 33 34 35 34 34 33
8 9 6 10 10 9 13 12 10 9 7 8 8 8 10 7 5 3 4 5 4 3 6 4 4 5 4 5 6 8 13 17 20 21 19 16 14 13 12 14 15 16 16 16 16 18 18 17 20 24 27 30 32 34 36 37 38 38 39 40 42 43 43 44 43 43 43 43 42 41 40 39 38 37 36 35 34 34 34 35 34 35 36 36 35 34
4 6 4 4 9 12 14 11 11 11 6 4 8 10 7 5 5 4 4 1 3 4 6 3 3 4 2 5 5 6 9 12 17 19 20 20 17 14 13 13 15 15 16 17 17 18 18 17 20 25 27 30 32 34 37 39 41 42 41 41 42 42 43 44 44 44 43 43 41 40 40 40 39 38 37 36 36 35 35 35 35 35 35 35 35 34
4 7 10 8 9 11 10 10 11 13 8 4 7 8 4 5 3 4 2 2 2 6 5 1 4 5 3 4 5 5 9 9 14 18 20 21 18 17 17 16 18 18 17 18 18 18 17 16 18 23 28 32 35 37 39 41 42 43 42 42 42 42 42 44 44 44 43 42 41 40 40 40 39 39 39 38 37 35 34 35 35 35 34 35 35 34
5 5 9 6 6 7 5 7 9 10 13 9 6 7 7 4 6 5 4 4 4 4 5 3 3 4 5 5 5 7 9 9 12 15 17 20 18 17 18 19 20 19 16 16 16 15 14 15 18 23 28 32 36 37 39 40 40 40 41 42 42 43 44 44 43 42 42 42 41 40 40 41 40 39 39 37 35 34 34 35 35 35 35 36 35 35
5 3 5 4 2 8 5 5 7 8 12 10 5 7 7 5 6 6 4 3 4 4 3 4 4 4 6 6 7 10 10 9 11 12 13 18 18 16 17 18 18 18 16 15 15 15 16 17 20 26 30 32 35 36 36 37 37 39 40 40 41 42 42 41 41 41 40 41 41 40 40 40 40 40 39 37 35 34 35 35 35 35 36 35 35 35
4 1 4 7 8 6 3 5 8 9 8 8 7 7 7 4 3 5 3 3 4 3 3 3 5 5 5 5 8 10 10 9 11 12 13 15 17 17 17 17 17 17 17 17 17 17 18 18 20 26 30 30 31 32 32 34 36 37 38 38 40 40 39 39 40 40 40 40 40 39 39 40 40 40 39 37 36 35 36 35 34 35 34 34 34 35
3 1 3 7 7 4 7 5 2 2 4 6 7 7 9 5 4 5 5 2 3 3 4 4 5 7 6 5 8 10 9 9 11 13 13 14 17 17 17 18 18 17 18 18 18 18 18 16 18 23 26 26 27 29 31 34 35 36 37 38 38 38 38 39 40 40 40 40 39 40 40 40 40 40 39 37 36 36 36 35 35 34 33 32 33 34
4 2 3 7 6 8 16 15 10 10 10 7 7 7 8 6 5 8 7 4 4 4 2 3 3 8 6 6 8 10 11 11 10 13 13 13 16 17 17 18 18 18 19 19 19 17 16 16 17 20 23 25 27 29 31 33 34 35 37 37 37 37 38 39 40 40 40 39 39 40 40 39 39 39 38 37 37 37 36 36 35 34 33 33 33 33
5 2 3 6 6 9 15 14 10 10 6 4 6 6 7 8 9 8 6 5 5 5 4 2 5 8 6 4 6 7 8 8 8 11 14 13 12 15 18 17 17 18 18 18 17 16 15 15 15 16 18 21 25 27 30 32 33 35 36 36 36 37 38 39 39 39 38 38 39 39 38 38 37 37 37 37 37 37 37 36 36 35 34 35 34 33
4 2 2 4 5 6 7 6 4 4 2 2 5 5 8 13 12 5 2 4 5 7 8 6 7 10 6 3 3 4 5 6 6 9 14 14 12 14 15 15 15 17 17 17 16 15 14 14 14 14 15 19 24 27 29 32 33 33 34 35 36 37 38 38 38 37 37 38 38 37 37 37 36 37 37 37 37 37 37 37 36 35 35 35 35 35
2 2 0 1 2 4 4 4 1 4 6 5 6 8 10 10 12 7 4 4 7 6 7 8 9 10 8 7 9 7 4 7 7 9 12 13 14 15 14 13 13 14 15 17 17 16 15 15 15 15 15 19 25 27 28 31 32 32 33 35 36 36 36 37 37 37 37 37 36 36 36 37 37 37 38 39 38 38 38 37 36 35 35 36 36 36
1 3 3 4 6 6 6 6 5 6 8 9 11 14 14 13 10 8 6 6 7 5 6 9 9 10 13 13 14 12 7 7 8 8 12 13 13 14 14 14 14 14 14 16 15 15 16 16 17 17 16 20 25 27 28 29 30 31 32 33 35 35 35 36 36 36 37 36 36 36 37 39 39 39 39 39 39 39 38 37 37 36 37 37 37 37
1 3 4 7 9 9 11 14 14 12 12 12 13 16 16 14 11 10 11 8 7 7 6 8 6 9 16 17 16 14 8 7 8 8 12 13 13 14 14 14 15 15 14 14 14 15 17 17 17 17 16 19 24 27 27 29 30 31 31 33 34 35 35 36 36 37 37 36 36 37 38 40 40 40 39 39 38 38 37 38 38 38 38 38 37 38
1 3 4 5 9 11 14 17 17 14 13 13 13 16 18 16 12 13 13 10 10 8 9 6 8 12 16 18 17 13 7 7 9 9 11 12 13 13 13 14 15 15 15 15 16 16 18 18 17 16 17 19 22 25 26 27 29 30 31 32 34 35 36 36 37 37 37 36 37 38 39 39 38 38 38 37 37 37 37 38 38 38 38 38 38 38
1 3 4 6 10 14 15 14 13 11 10 12 13 13 16 16 15 15 12 10 12 10 8 7 10 14 15 14 13 8 6 8 6 5 6 8 11 12 13 15 15 15 16 17 17 17 18 18 17 17 17 17 20 24 25 26 29 31 31 33 34 35 36 37 37 37 37 37 38 38 38 37 37 37 37 37 37 38 38 37 37 37 37 37 37 38
1 2 4 6 8 11 11 7 7 8 9 10 10 9 11 12 12 14 11 7 9 7 4 6 9 11 10 7 6 5 4 3 1 4 8 10 12 12 13 14 14 15 16 17 17 17 17 17 16 16 16 17 20 25 27 28 30 31 32 32 34 35 36 36 36 36 36 36 37 37 36 36 36 36 36 37 38 38 38 37 37 37 37 37 37 37
2 2 4 5 5 7 6 8 13 15 11 8 5 13 17 12 3 6 3 1 3 5 3 4 6 8 7 4 2 3 6 6 3 2 6 8 9 12 14 14 14 15 15 16 16 16 16 15 15 15 15 17 21 26 28 28 29 30 31 33 34 34 34 35 35 35 35 35 36 36 36 36 35 35 36 36 37 37 37 37 37 37 37 36 37 37
2 2 2 3 3 6 5 10 15 13 8 4 2 11 14 11 6 7 7 9 6 1 4 5 6 6 6 5 2 5 9 7 6 5 4 6 6 10 13 14 15 15 16 16 16 16 16 14 14 16 17 19 24 29 31 32 31 32 34 35 34 33 34 34 34 34 35 35 36 36 36 36 36 36 36 36 37 37 37 37 37 38 37 37 37 36
3 3 2 0 2 5 10 14 10 1 0 2 3 9 12 10 11 11 8 9 9 5 1 3 6 6 4 4 2 5 8 6 5 7 5 2 3 7 9 10 12 13 14 15 15 15 15 14 13 15 18 23 28 31 32 33 33 33 33 33 33 33 33 33 33 34 35 36 36 36 36 36 36 36 36 37 38 38 37 37 38 38 38 37 36 36
3 3 2 1 2 4 9 10 1 6 2 2 5 9 11 7 7 7 6 10 14 12 10 8 6 4 4 5 4 5 9 9 10 13 13 9 4 1 4 4 6 9 9 10 11 11 11 11 11 12 17 24 27 26 26 28 27 27 28 30 31 32 33 33 33 34 35 35 35 35 35 36 35 36 36 37 37 37 37 37 37 37 37 36 37 38
4 3 2 2 2 2 4 4 3 4 5 3 3 8 12 8 9 8 6 12 17 14 12 10 9 7 5 5 3 1 4 10 15 15 14 13 10 7 6 5 6 7 7 7 8 8 8 9 11 12 15 20 22 23 23 24 25 24 26 29 30 30 32 32 32 32 33 33 34 35 35 35 36 36 36 36 36 36 37 37 37 37 37 37 37 38
6 3 1 2 2 1 2 4 3 3 5 4 2 7 9 6 9 9 4 8 13 13 12 11 10 10 7 3 3 5 4 9 14 12 14 14 12 10 9 8 7 9 9 8 9 10 11 14 15 15 16 18 19 22 22 23 24 25 25 26 28 29 30 29 29 31 32 32 33 35 36 36 36 36 36 36 36 36 37 37 37 37 37 37 36 37
7 6 2 1 2 1 2 3 4 2 1 2 7 11 8 5 8 8 3 3 11 15 14 12 11 11 9 7 7 7 4 9 10 7 10 13 11 11 12 10 10 11 10 10 11 13 16 19 19 18 19 19 17 20 24 25 26 26 25 25 27 27 27 27 28 30 31 32 34 35 36 37 37 37 37 36 36 37 37 38 37 38 38 38 37 38
9 7 4 3 3 2 1 2 3 2 2 5 14 18 13 7 7 6 1 4 11 16 15 12 11 11 9 9 8 4 3 8 5 4 7 9 10 11 11 11 11 11 12 13 15 16 18 22 24 22 21 18 13 14 23 29 29 27 25 25 26 26 26 27 29 30 31 33 35 37 38 38 38 38 37 36 37 38 38 39 38 38 38 38 38 38
6 6 4 3 4 4 3 3 2 1 2 8 15 18 17 13 7 2 3 4 9 14 14 13 12 12 11 10 8 6 8 7 4 3 6 8 8 10 11 11 11 10 11 14 17 20 22 25 26 23 20 17 14 12 18 25 27 25 23 24 25 25 26 28 31 32 33 35 36 37 37 37 38 38 37 37 38 39 39 39 38 37 36 36 36 36
2 3 3 3 4 4 3 2 2 1 2 10 16 17 17 12 3 3 4 3 8 11 12 12 12 12 12 9 7 7 8 8 6 7 8 9 10 11 11 11 11 12 13 14 17 21 24 25 25 23 20 19 19 18 16 19 18 16 17 18 19 20 22 23 25 27 29 31 32 34 35 36 37 38 38 38 39 38 38 38 37 36 35 35 35 34
2 2 2 3 3 3 3 2 2 1 1 9 15 16 14 7 3 4 4 5 8 10 10 12 13 12 11 9 7 7 8 10 10 11 11 11 11 11 11 11 11 13 14 15 17 20 22 22 23 23 23 24 24 22 19 19 17 13 11 10 6 7 11 14 18 22 24 26 29 31 32 34 35 36 37 37 37 36 35 36 36 35 35 34 33 32
0 1 0 1 1 1 1 0 1 0 3 10 13 10 9 7 3 3 5 5 7 9 9 11 11 11 11 9 8 8 10 12 12 11 11 12 11 11 11 11 10 11 12 13 14 17 19 19 20 21 22 24 26 24 22 21 19 16 13 11 7 3 1 6 13 18 22 26 28 30 32 33 34 35 35 35 35 34 34 35 35 34 33 32 31 30
3 2 2 2 2 2 1 2 3 2 3 8 8 5 7 6 4 4 5 6 7 8 8 8 10 11 11 10 9 10 12 12 12 11 11 12 11 11 11 11 11 10 10 11 13 16 18 18 18 20 22 24 25 24 22 21 19 16 15 13 10 7 5 3 7 13 19 24 28 30 32 33 33 34 34 34 34 33 33 33 32 32 32 31 30 28
4 4 3 2 3 3 2 2 3 3 2 5 6 6 7 7 7 8 8 7 7 7 6 7 9 11 12 11 10 11 11 11 10 11 11 10 10 11 11 11 11 11 11 12 14 16 17 17 18 19 21 23 24 22 20 19 18 16 15 14 12 10 8 6 4 8 15 21 25 28 30 32 32 33 33 33 33 33 32 31 30 29 29 29 28 27
4 5 3 3 5 6 3 3 4 4 3 4 5 7 8 8 8 8 8 7 8 9 8 7 8 10 11 12 11 10 10 10 9 9 10 10 10 11 10 10 11 13 13 13 14 15 17 18 18 18 18 20 21 21 18 17 16 15 14 13 13 11 9 8 6 6 9 15 20 23 25 27 29 30 31 31 32 33 32 31 29 28 28 28 27 26
5 5 4 4 7 5 1 3 5 5 2 4 6 7 8 9 9 8 6 6 8 9 9 9 9 10 11 11 11 10 10 11 10 9 8 8 9 10 10 10 10 11 12 13 13 13 15 15 14 14 15 16 17 18 16 15 15 14 13 12 13 12 9 7 7 7 7 10 15 17 20 23 25 26 27 28 29 30 30 30 29 28 27 26 25 24
6 6 4 5 6 4 4 4 5 5 1 4 6 5 6 7 10 10 8 7 7 9 10 10 9 8 9 10 10 9 10 11 11 10 8 7 7 8 8 9 9 10 13 16 16 14 12 11 11 11 11 13 14 14 14 13 13 13 12 13 13 12 10 8 6 7 6 7 10 13 17 21 23 24 24 24 23 23 22 23 24 25 25 25 25 24
6 5 5 7 7 5 5 4 6 6 2 5 7 7 6 6 9 11 11 10 8 8 10 11 10 9 8 8 8 8 9 9 9 9 9 8 8 8 8 8 9 11 13 15 17 15 11 9 9 10 10 11 13 13 12 12 12 12 12 13 13 13 11 9 6 6 6 5 7 10 14 17 19 21 21 20 18 15 13 14 17 19 20 22 24 25
5 6 6 7 6 4 3 4 7 7 7 6 1 5 7 7 8 10 12 13 10 7 7 10 11 11 9 8 7 7 8 8 8 7 8 8 7 8 8 9 10 12 14 15 16 17 14 9 7 9 10 10 12 12 12 11 12 12 12 11 12 13 12 10 7 5 5 5 6 9 12 14 16 18 20 19 18 17 14 10 11 14 16 18 20 23
6 7 7 6 7 8 9 9 8 7 10 12 9 3 5 7 7 7 9 11 11 8 6 7 9 11 11 10 8 7 7 8 8 7 6 7 8 9 10 10 10 11 13 14 14 15 14 10 5 6 8 8 9 10 10 10 12 12 12 10 10 11 11 10 7 4 4 5 6 9 12 15 17 19 20 20 20 20 17 13 9 8 10 13 16 18
Wind_Direction
174 182 195 207 211 208 211 207 203 227 244 211 175 198 218 225 249 239 245 260 196 182 208 211 196 182 186 184 182 180 180 185 182 179 185 187 186 187 191 194 195 197 196 189 185 185 187 188 189 189 189 190 190 192 192 192 193 194 194 194 196 198 198 196 196 198 200 202 206 207 209 211 214 218 221 221 221 224 227 227 226 223 219 219 219 221
175 197 215 214 207 202 207 195 184 209 236 245 207 209 230 227 246 251 250 265 218 199 223 214 189 183 192 190 185 179 181 190 186 184 190 189 187 189 192 195 197 199 193 187 187 185 186 188 188 188 189 189 189 191 192 192 193 194 194 195 196 196 197 197 198 198 200 202 204 204 206 208 211 216 218 218 219 222 224 226 226 221 219 219 220 222
189 219 223 210 179 177 197 183 179 201 219 237 228 216 244 231 260 276 263 261 221 218 236 200 181 195 199 192 185 181 187 194 191 189 191 186 186 190 193 195 196 196 192 191 191 186 186 187 187 188 189 190 190 191 192 193 193 193 194 195 195 196 197 199 199 199 201 203 205 206 207 206 208 213 215 217 219 220 222 226 226 221 218 218 220 223
193 228 219 184 154 179 199 190 184 201 214 222 220 213 240 227 174 252 258 266 218 218 239 190 182 207 204 194 188 191 194 193 194 196 194 187 188 192 193 192 192 193 193 192 193 189 186 186 187 189 189 190 191 191 192 193 193 193 195 196 196 197 198 199 201 202 203 203 205 208 210 209 209 212 215 217 220 220 222 225 224 222 220 220 221 223
219 243 172 155 179 189 201 208 190 199 220 223 221 217 231 227 215 231 280 335 304 278 269 192 294 263 201 192 198 202 200 196 197 196 198 200 198 194 191 192 195 195 194 192 192 190 187 186 188 189 189 190 191 192 193 193 193 194 195 196 197 198 199 200 201 203 203 202 204 207 210 211 210 212 213 212 215 217 219 221 222 222 222 222 223 224
234 240 153 168 192 190 201 214 201 201 217 232 227 220 222 227 235 239 353 351 317 305 282 167 264 289 208 193 201 202 199 203 200 194 200 205 202 194 191 195 198 200 199 195 193 191 190 188 187 188 189 190 192 194 194 194 194 195 196 197 198 198 199 201 202 202 201 201 202 202 201 201 201 204 208 208 210 212 215 219 221 222 223 223 224 225
227 213 168 183 191 191 205 215 209 198 202 235 224 216 218 225 246 243 144 186 249 259 269 162 184 267 239 203 205 195 196 205 201 199 204 203 197 195 196 197 196 198 199 199 199 195 192 189 186 188 190 191 194 195 194 194 195 196 197 197 197 198 199 201 201 201 201 201 202 201 200 200 198 199 205 210 211 212 215 219 221 223 223 223 225 226
203 195 182 194 192 193 206 212 206 188 198 234 213 203 211 215 242 241 168 205 246 271 285 262 173 245 256 219 212 194 195 206 203 202 206 202 201 201 199 198 196 197 197 196 199 197 194 192 189 190 191 193 194 194 193 193 195 196 196 197 197 198 199 200 200 200 200 201 201 201 202 202 202 202 206 209 211 212 216 218 220 223 223 223 225 228
192 199 191 193 197 201 209 209 196 186 209 230 166 187 206 207 239 239 167 211 254 323 282 266 180 225 259 234 218 199 197 207 207 205 204 201 204 203 200 200 199 199 198 197 198 196 195 194 192 192 193 194 194 192 193 194 195 196 196 196 197 197 198 199 199 199 200 201 202 202 202 204 206 207 208 209 209 210 213 216 219 222 223 222 224 227
192 198 186 194 208 209 212 211 189 192 218 197 139 179 206 216 238 226 171 198 215 218 255 256 200 195 272 246 208 203 204 209 209 207 204 202 204 202 200 201 200 198 198 201 200 197 196 195 194 194 193 194 194 193 193 194 195 195 196 196 196 197 198 198 198 199 200 201 202 203 203 205 207 207 208 209 209 210 212 215 218 220 221 221 222 224
226 188 177 197 215 202 194 206 196 201 210 162 145 184 236 246 247 213 165 168 215 232 245 251 221 179 257 257 198 201 209 209 209 207 206 206 206 204 203 201 199 196 197 202 201 197 198 196 194 193 192 192 193 194 193 193 194 194 195 195 196 197 198 198 199 199 200 201 203 205 206 207 207 205 204 205 207 209 211 214 216 219 220 220 222 223
240 220 186 195 207 188 169 202 208 206 206 188 171 186 251 296 322 316 131 157 221 235 241 247 226 190 230 256 209 204 210 209 207 204 201 203 206 205 203 200 198 197 198 199 197 196 196 195 194 193 192 191 191 192 192 192 193 193 194 194 195 196 197 197 198 199 200 201 203 206 207 208 208 205 204 205 207 208 210 214 215 217 218 219 221 222
226 230 234 216 206 189 178 197 206 204 204 201 183 175 200 236 216 215 199 188 222 236 244 230 199 201 227 239 215 204 210 213 211 208 200 200 204 204 201 198 197 197 195 195 195 194 194 193 193 192 192 191 190 191 191 191 192 192 193 194 194 195 196 197 198 198 200 201 203 206 208 209 208 207 208 209 210 211 212 214 214 215 216 216 218 219
211 238 230 223 219 192 189 191 193 200 195 196 194 180 190 198 203 214 212 226 223 234 247 209 175 214 230 233 214 196 204 212 213 216 208 201 203 202 199 194 193 194 193 194 194 194 196 194 191 191 191 191 191 191 191 191 192 191 193 193 194 195 196 197 197 198 199 201 204 206 207 208 208 209 211 211 213 214 214 215 215 216 216 216 218 219
210 228 213 211 207 175 195 200 185 181 186 200 196 180 199 201 194 204 197 204 204 230 248 198 174 203 186 218 215 190 199 207 209 217 213 209 210 204 198 192 189 192 193 193 193 196 198 193 189 190 191 191 191 190 190 191 192 191 192 193 194 195 196 196 198 198 200 202 204 206 207 208 208 210 211 213 215 215 215 216 216 217 217 218 221 222
231 228 199 207 204 177 198 206 177 169 191 206 188 186 212 197 161 195 197 181 161 202 241 204 196 220 199 248 245 176 188 201 206 212 209 211 212 200 199 195 191 195 193 192 194 198 198 192 190 191 191 191 190 189 190 191 192 192 193 194 194 195 196 196 198 198 200 202 204 205 206 207 209 210 212 213 215 216 217 217 218 219 220 221 222 223
277 254 326 290 232 205 200 195 180 184 188 180 187 203 206 147 148 215 240 214 124 184 233 208 216 262 276 267 259 145 159 192 205 208 207 208 200 187 194 197 196 198 194 193 195 197 196 191 191 191 189 189 189 190 191 192 192 193 193 193 195 196 196 197 198 199 200 202 203 205 206 207 209 210 212 213 214 216 217 218 219 220 221 222 223 224
340 285 302 297 249 236 215 192 195 195 173 149 197 197 132 99 164 198 221 269 190 211 255 248 203 223 198 240 254 169 159 183 201 204 207 210 199 187 192 195 197 198 195 195 197 197 195 192 191 191 190 191 190 191 192 193 193 194 194 194 194 195 196 197 198 199 200 201 202 204 206 207 209 210 212 214 215 215 215 217 219 220 221 222 224 225
334 300 285 249 222 279 266 198 209 206 197 202 191 157 142 164 199 184 192 223 207 220 271 285 235 212 197 220 233 204 186 179 194 201 206 210 204 193 193 195 196 196 195 195 197 196 194 194 194 192 192 193 192 193 193 192 192 193 195 196 196 197 198 198 198 199 200 201 202 204 206 208 209 211 213 214 215 214 215 217 218 219 221 222 223 225
323 310 287 287 320 323 307 199 209 214 210 209 174 153 171 191 192 184 184 187 192 214 242 276 277 234 225 216 191 201 206 183 180 193 201 207 207 198 195 196 195 192 192 192 193 195 194 196 197 195 193 192 192 192 192 191 191 193 195 196 197 199 199 198 198 199 200 201 202 204 206 208 209 211 213 214 214 214 216 218 219 220 221 222 223 225
325 330 284 312 339 326 258 200 202 207 209 204 194 189 190 185 167 188 201 151 158 194 195 228 264 252 247 222 187 199 215 193 173 181 196 204 206 200 195 196 194 191 192 191 191 194 195 195 196 197 196 192 191 191 189 190 191 193 194 195 197 198 198 198 199 199 200 202 203 204 205 207 209 211 212 213 213 215 217 218 219 221 221 222 224 225
315 341 290 298 329 305 247 255 295 287 264 227 214 207 198 189 140 175 226 216 151 181 178 182 249 260 246 207 191 194 209 209 184 180 193 202 202 201 198 195 193 191 192 193 193 194 193 192 193 194 193 189 189 188 188 190 192 192 194 195 196 197 198 199 199 200 201 201 202 204 206 207 209 210 211 212 213 215 217 218 220 221 221 222 224 225
295 296 293 279 277 262 259 270 295 295 281 262 243 219 198 190 164 184 218 214 184 204 177 145 260 268 249 207 201 203 208 213 193 180 194 203 200 199 199 197 193 191 193 192 192 192 190 189 189 187 188 188 189 189 188 190 191 193 194 195 195 196 198 199 199 200 201 201 203 205 206 207 208 209 210 211 213 215 217 219 220 221 221 222 224 226
315 315 310 300 289 275 268 265 269 264 252 264 267 233 199 201 199 201 200 176 186 209 194 212 265 268 266 224 214 232 233 224 192 180 197 205 201 200 199 195 192 192 194 192 190 190 188 184 182 182 185 188 190 190 189 190 192 193 194 194 194 196 198 198 199 200 200 201 203 205 205 207 207 208 209 211 213 215 217 219 220 221 222 223 224 226
328 335 358 340 321 291 269 245 256 305 359 334 292 273 239 216 200 187 123 152 202 210 184 193 245 254 272 304 288 295 281 254 219 191 202 204 197 200 200 193 189 190 192 190 187 185 181 177 178 183 186 187 190 191 189 190 192 193 193 193 194 196 197 198 199 199 200 201 203 204 205 206 207 208 209 211 213 215 217 218 219 220 222 223 224 226
298 279 70 11 268 245 240 218 225 347 341 312 292 301 292 248 207 181 126 168 217 211 176 192 234 256 278 296 287 283 271 264 248 205 206 209 197 195 194 188 187 188 189 188 183 180 177 177 183 186 185 187 190 191 190 190 192 192 193 194 195 196 196 197 198 199 200 201 202 203 204 205 207 208 210 212 213 215 216 217 218 219 221 222 224 226
280 257 227 207 230 248 267 279 285 304 301 288 290 298 299 286 247 199 159 184 199 173 186 214 226 255 270 270 268 266 262 276 265 211 202 208 198 191 190 185 183 186 187 185 179 177 176 179 185 186 185 188 191 192 191 190 191 191 192 193 195 195 195 196 197 199 200 201 202 203 204 205 207 209 211 212 213 214 216 216 217 218 220 222 223 225
288 279 260 229 239 255 267 277 283 286 276 266 276 283 282 287 275 224 201 191 155 150 220 235 202 229 255 256 255 260 268 282 268 218 203 201 192 188 186 181 182 184 183 180 177 177 178 182 186 185 185 188 190 191 191 190 191 191 191 193 194 194 195 195 196 198 200 201 202 204 206 206 208 209 211 213 214 215 216 216 217 218 220 221 222 224
237 255 274 261 272 277 271 272 273 269 261 253 259 266 268 275 272 243 221 185 152 180 224 219 182 214 243 251 253 256 253 250 242 220 213 202 185 183 180 177 183 181 175 176 178 179 181 184 185 183 185 187 187 188 189 190 191 191 192 193 193 194 195 195 195 197 199 200 203 205 207 208 208 210 211 212 213 215 216 217 218 219 220 221 222 224
270 257 286 299 300 291 277 267 258 256 265 268 265 265 266 265 256 248 234 183 170 201 217 188 190 219 238 247 257 264 247 239 231 217 228 207 182 181 177 177 184 180 175 178 180 182 185 186 185 184 184 185 185 187 188 189 191 191 192 193 193 194 195 194 194 196 198 200 203 206 207 208 209 209 210 211 213 215 216 217 218 219 221 222 223 225
312 287 310 326 317 297 284 281 284 289 286 270 278 314 316 291 252 233 229 195 180 203 221 191 204 233 252 257 268 298 312 292 207 192 213 203 185 181 177 178 183 180 178 180 180 183 186 186 185 183 182 184 185 187 189 191 191 192 194 195 195 195 194 193 194 196 199 201 204 205 207 207 208 209 210 211 213 214 215 216 218 219 221 222 223 225
291 282 322 354 333 291 296 329 323 317 305 268 313 355 342 325 278 187 183 68 174 188 172 167 203 243 272 280 282 12 23 13 1 262 236 221 193 180 176 178 181 179 180 182 182 184 185 183 181 180 183 185 186 188 191 191 190 192 196 197 196 195 193 193 195 196 199 202 204 205 206 206 207 208 210 211 212 214 215 216 217 219 220 221 223 224
260 276 335 7 316 282 305 324 315 317 320 279 354 7 343 338 34 79 56 20 359 200 166 181 216 253 279 290 308 55 47 27 10 357 285 250 221 194 184 180 180 180 179 180 181 182 181 180 181 182 184 184 186 191 193 190 190 194 197 197 195 194 193 193 195 196 200 202 203 204 205 205 206 208 209 211 212 214 215 215 216 217 219 221 222 224
250 279 313 16 292 289 304 313 307 303 340 238 106 29 352 353 35 59 56 17 0 357 326 240 257 280 309 325 346 91 82 62 37 27 13 321 237 209 193 181 179 180 179 180 182 183 181 181 181 180 182 185 189 193 193 191 193 196 196 195 194 193 192 193 194 197 200 203 203 204 205 205 206 207 209 210 212 213 214 214 216 217 219 220 221 223
250 270 270 211 231 279 305 320 327 154 210 215 104 36 357 351 23 44 60 31 16 9 1 349 321 328 40 44 36 94 103 91 65 39 28 24 19 137 146 140 153 160 165 171 173 173 173 174 174 176 182 186 189 190 190 193 194 193 192 193 193 193 193 193 195 198 201 202 203 204 204 204 205 206 208 210 210 212 213 214 216 217 218 219 220 222
235 251 266 251 246 272 318 331 173 191 309 339 92 13 359 1 358 358 25 24 15 7 2 354 335 344 43 67 36 22 89 77 63 40 23 21 24 44 76 86 105 119 127 137 144 149 154 160 164 169 177 181 183 184 187 190 190 188 189 191 192 193 194 194 195 198 200 201 202 204 204 204 205 206 208 209 209 210 213 214 216 217 217 219 220 223
214 231 260 249 235 248 317 307 271 275 328 353 9 344 345 338 331 335 355 10 6 4 1 353 341 340 346 352 318 282 310 51 57 33 13 19 24 39 60 68 80 93 98 103 109 112 119 131 144 153 160 166 173 179 182 182 184 185 186 189 191 193 194 195 197 199 200 201 202 204 205 205 205 206 208 208 208 210 212 214 216 217 217 217 219 222
203 214 227 243 253 324 334 314 313 289 239 340 328 318 302 269 287 292 271 5 3 360 358 355 352 347 341 341 327 291 312 47 54 22 6 14 19 36 52 58 66 77 84 91 97 96 100 110 120 132 142 146 158 173 178 180 183 184 184 186 190 192 193 195 199 200 201 202 204 205 206 206 206 207 208 208 208 210 213 215 216 217 217 217 218 221
204 214 233 256 259 302 315 283 302 266 200 334 326 316 309 304 290 272 225 39 359 350 352 355 355 355 355 354 345 333 85 81 65 12 8 14 21 36 48 50 55 65 70 76 86 91 95 98 99 102 108 110 118 158 177 181 182 181 182 185 188 191 195 199 202 202 203 204 206 208 208 207 208 208 209 209 209 211 213 215 217 218 217 217 219 221
202 212 223 236 238 250 252 253 281 252 262 319 321 314 310 310 298 243 111 44 344 340 349 355 358 4 7 3 3 36 76 89 91 38 18 17 29 39 44 45 46 56 65 69 79 86 88 88 87 84 83 80 81 115 161 176 177 177 181 185 187 193 200 204 206 207 207 207 208 209 209 209 209 209 210 210 212 213 215 216 217 217 217 217 219 222
195 217 209 213 236 251 241 249 290 235 270 316 319 314 310 307 311 76 70 9 326 332 349 1 6 8 8 11 28 53 64 71 75 59 36 29 36 37 38 42 42 47 58 66 76 83 83 82 82 80 75 72 75 89 121 147 155 163 176 183 190 202 209 212 213 212 211 210 210 210 210 210 210 211 212 213 214 215 215 216 217 217 216 217 218 220
187 218 200 200 227 244 214 223 281 234 311 331 323 320 329 344 60 56 20 340 324 332 351 8 12 7 4 12 30 52 64 62 58 53 43 35 35 32 30 36 38 41 49 58 69 79 83 81 80 78 72 68 70 78 94 105 105 109 128 141 166 208 219 222 223 220 218 216 214 213 212 212 212 213 214 214 214 214 215 217 217 218 217 217 218 219
254 240 279 242 256 291 225 179 8 335 350 343 332 336 10 31 42 358 343 331 334 344 357 11 15 8 4 9 17 35 53 54 46 46 44 38 34 32 30 33 33 32 39 46 56 70 80 80 77 73 70 68 67 70 78 83 80 80 81 70 47 36 220 228 224 222 221 219 217 216 214 214 214 214 214 215 215 214 215 216 217 217 217 217 217 218
27 12 350 329 337 350 5 38 10 316 326 349 349 18 44 29 3 3 356 339 342 350 358 9 11 7 8 12 15 25 40 45 39 38 40 35 31 29 29 31 31 28 32 38 45 57 70 77 77 73 69 67 65 63 65 68 67 63 53 36 23 24 20 309 238 224 221 219 217 216 215 215 215 215 215 215 215 215 215 215 215 216 217 216 216 216
20 13 354 303 295 319 347 48 13 330 2 24 20 34 33 17 17 25 16 357 348 346 351 1 1 2 7 13 18 24 31 34 32 32 34 33 27 25 26 27 26 24 26 32 40 49 60 68 72 71 66 63 63 61 56 56 56 50 38 25 17 15 8 347 297 245 229 222 219 217 215 214 214 214 215 215 214 214 215 214 214 213 214 215 214 215
348 4 7 326 317 321 336 49 20 355 16 46 45 41 28 13 13 23 23 7 347 341 347 352 353 0 6 10 16 21 19 21 26 27 26 26 23 21 21 21 21 23 23 24 30 42 55 60 63 65 63 58 59 59 55 52 51 44 31 20 15 10 1 353 338 295 248 230 225 221 216 212 211 211 212 213 213 214 215 214 213 212 212 212 212 214
339 359 15 354 336 323 324 33 8 345 357 66 61 48 33 11 359 4 18 8 344 338 343 344 347 1 12 12 13 11 6 11 19 20 19 22 21 17 15 15 13 15 18 18 21 37 54 57 55 58 60 55 54 56 55 50 46 40 28 16 11 7 0 356 343 319 280 245 234 226 217 212 209 207 208 209 210 213 215 215 214 212 210 209 209 211
335 345 2 353 336 301 274 301 328 319 252 134 102 66 43 19 359 351 350 349 341 337 340 342 347 2 13 12 7 3 1 3 7 8 10 15 16 12 9 9 6 7 13 17 19 30 49 56 54 58 60 55 53 54 52 47 40 33 24 14 7 1 359 0 348 327 305 264 240 227 217 212 208 203 200 201 204 207 209 212 213 213 212 210 208 208
334 345 353 337 317 282 267 310 354 345 299 150 118 79 56 32 5 349 338 334 337 340 341 344 350 359 9 8 4 2 359 355 355 1 2 1 5 7 1 357 358 2 7 12 15 20 30 43 54 59 57 52 51 50 47 40 31 20 13 8 3 359 358 358 351 337 321 289 248 226 215 208 202 195 189 185 183 184 187 197 206 210 213 214 213 213
352 354 349 334 311 278 279 5 10 343 293 257 238 58 56 40 13 349 330 323 326 338 349 349 349 352 357 360 5 5 356 344 341 352 359 355 352 355 355 352 353 356 0 7 13 17 18 25 49 57 51 47 48 48 47 41 29 18 9 3 359 358 357 353 346 335 318 294 253 223 207 196 189 185 180 174 169 163 158 166 189 202 207 211 214 217
3 346 333 314 289 281 292 312 320 298 276 275 284 338 38 21 356 333 317 312 312 319 343 358 355 349 345 345 355 1 348 334 330 338 354 354 343 345 354 355 348 345 348 357 9 13 9 9 34 59 53 48 50 52 51 44 32 21 11 0 355 355 353 347 336 315 293 272 240 215 199 187 180 177 174 170 167 163 154 144 143 166 193 206 213 217